This is the latest recevied weather packets stored in our database for station/object N3WAX-1. If no packets are shown the sender has not sent any weather packets the latest 10 day(s).
| Time | Temp. | Humidity | Pressure | Rain* | Wind** | Luminosity | Snow |
|---|---|---|---|---|---|---|---|
| 1777709722 | 8.89° C | 89% | 1011.9 hPa | 0 mm | - | 0 W/m² | - |
| 1777706420 | 8.89° C | 90% | 1011.9 hPa | 0 mm | - | 0 W/m² | - |
| 1777705819 | 8.89° C | 89% | 1011.9 hPa | 0 mm | - | 0 W/m² | - |
| 1777705222 | 8.89° C | 87% | 1011.9 hPa | 0 mm | - | 0 W/m² | - |
| 1777702476 | 10° C | 84% | 1012.4 hPa | 0 mm | - | 0 W/m² | - |
| 1777702170 | 10° C | 84% | 1012.4 hPa | 0 mm | - | 0 W/m² | - |
| 1777701248 | 10° C | 84% | 1012.4 hPa | 0 mm | - | 0 W/m² | - |
| 1777700942 | 10° C | 84% | 1012.4 hPa | 0 mm | - | 0 W/m² | - |
| 1777699415 | 10° C | 88% | 1012.4 hPa | 0 mm | - | 0 W/m² | - |
| 1777698815 | 10° C | 89% | 1012.4 hPa | 0 mm | - | 0 W/m² | - |
| 1777698211 | 10° C | 89% | 1012.6 hPa | 0 mm | - | 0 W/m² | - |
| 1777697909 | 10° C | 89% | 1012.7 hPa | 0 mm | - | 0 W/m² | - |
| 1777696403 | 10° C | 89% | 1012.4 hPa | 0 mm | - | 0 W/m² | - |
| 1777695199 | 10.56° C | 89% | 1012.4 hPa | 0 mm | - | 0 W/m² | - |
| 1777694899 | 10.56° C | 88% | 1012.2 hPa | 0 mm | - | 0 W/m² | - |
| 1777690984 | 10.56° C | 88% | 1011.9 hPa | 0 mm | - | 0 W/m² | - |
| 1777690378 | 10.56° C | 87% | 1011.9 hPa | 0 mm | - | 0 W/m² | - |
| 1777688865 | 10.56° C | 86% | 1011.7 hPa | 0 mm | - | 0 W/m² | - |
| 1777688271 | 10.56° C | 85% | 1012.2 hPa | 0 mm | - | 0 W/m² | - |
| 1777687665 | 10.56° C | 84% | 1012.3 hPa | 0 mm | - | 0 W/m² | - |
| 1777686166 | 11.11° C | 82% | 1012.2 hPa | 0 mm | - | 0 W/m² | - |
| 1777685567 | 11.11° C | 81% | 1012 hPa | 0 mm | - | 0 W/m² | - |
| 1777685266 | 11.11° C | 80% | 1011.9 hPa | 0 mm | - | 0 W/m² | - |
| 1777684517 | 10.56° C | 75% | 1011.6 hPa | 0 mm | - | 0 W/m² | - |
| 1777681813 | 11.11° C | 65% | 1011.4 hPa | 0 mm | - | 0 W/m² | - |
* Rain latest hour (hover to see other rain measurements)
** Current wind speed in m/s (hover to see current wind gust speed)